User: anonymous
Location: Caltech
(34.1382°N, 118.1253°W)
Time: 20:06:47
(UTC-07:00)
Language:

Meteor 1-11 Rocket - Orbit

View from above orbital plane
View from above orbital plane
View from above satellite
View from above satellite

Ground track
Ground track

The orbit data is extracted from the following two-line orbital elements,

1 05918U 72022B   14238.11301638  .00000228  00000-0  13076-3 0  2420
2 05918 081.2347 238.4078 0058078 330.5894 102.3033 14.05713194173831
Epoch (UTC): 26 August 2014 02:42:44
Eccentricity: 0.0058078
inclination: 81.2347°
perigee height: 832 km
apogee height: 916 km
right ascension of ascending node: 238.4078°
argument of perigee: 330.5894°
revolutions per day: 14.05713194
mean anomaly at epoch: 102.3033°
orbit number at epoch: 17383

The dashed part of the orbit path shows where the satellite is in the earth's shadow,  

DLR